CEB4526 RPMY-RPVM

Flight info

Callsign CEB4526
Flight time 0h 33m
Altitude 14000
Route SAKI5A SAKIB W21 ALDIN ALDI3P
Aircraft A20N/M-SDE2E3FGHIJ1RWXY/C

Departure

Time 2026-05-07 08:13
Airport Laguindingan International Airport (RPMY)

Arrival

Time 2026-05-07 08:46
Airport Mactan Cebu International Airport (RPVM)
Time Latitude Longitude Altitude Speed Heading
2026-05-07 07:52 8.60906 124.45779 198 ft 0 kts 175°
2026-05-07 08:00 8.60913 124.45779 198 ft 2 kts 175°
2026-05-07 08:00 8.60928 124.45777 198 ft 2 kts 175°
2026-05-07 08:00 8.60943 124.45776 198 ft 2 kts 175°
2026-05-07 08:00 8.60958 124.45775 198 ft 2 kts 175°
2026-05-07 08:01 8.60973 124.45776 198 ft 2 kts 204°
2026-05-07 08:01 8.60985 124.45785 198 ft 2 kts 227°
2026-05-07 08:01 8.60993 124.45797 198 ft 2 kts 251°
2026-05-07 08:01 8.60995 124.45805 198 ft 1 kts 265°
2026-05-07 08:02 8.60995 124.45812 198 ft 0 kts 266°
2026-05-07 08:06 8.60995 124.45808 198 ft 1 kts 267°
2026-05-07 08:06 8.60994 124.45796 198 ft 2 kts 264°
2026-05-07 08:06 8.60992 124.45776 198 ft 3 kts 262°
2026-05-07 08:06 8.60989 124.45749 198 ft 4 kts 265°
2026-05-07 08:07 8.60986 124.45713 198 ft 5 kts 264°
2026-05-07 08:07 8.60981 124.45670 198 ft 6 kts 264°
2026-05-07 08:07 8.60994 124.45624 198 ft 7 kts 320°
2026-05-07 08:07 8.61044 124.45611 198 ft 8 kts 354°
2026-05-07 08:08 8.61104 124.45606 198 ft 9 kts 355°
2026-05-07 08:08 8.61169 124.45599 198 ft 9 kts 347°
2026-05-07 08:08 8.61209 124.45546 198 ft 10 kts 274°
2026-05-07 08:08 8.61205 124.45466 198 ft 11 kts 266°
2026-05-07 08:09 8.61198 124.45377 198 ft 13 kts 266°
2026-05-07 08:09 8.61192 124.45273 198 ft 16 kts 266°
2026-05-07 08:09 8.61181 124.45152 198 ft 18 kts 265°
2026-05-07 08:09 8.61171 124.45010 198 ft 20 kts 264°
2026-05-07 08:10 8.61163 124.44907 198 ft 12 kts 265°
2026-05-07 08:10 8.61160 124.44882 198 ft 9 kts 264°
2026-05-07 08:11 8.61150 124.44759 198 ft 0 kts 87°
2026-05-07 08:12 8.61151 124.44775 198 ft 16 kts 85°
2026-05-07 08:12 8.61186 124.45197 198 ft 97 kts 86°
2026-05-07 08:12 8.61259 124.46104 200 ft 157 kts 84°
2026-05-07 08:12 8.61345 124.47236 694 ft 161 kts 84°
2026-05-07 08:13 8.61466 124.48350 1345 ft 159 kts 69°
2026-05-07 08:13 8.62150 124.49123 1890 ft 152 kts 11°
2026-05-07 08:13 8.63209 124.49128 2287 ft 159 kts 349°
2026-05-07 08:13 8.64351 124.48962 2646 ft 175 kts 350°
2026-05-07 08:14 8.65613 124.48814 3012 ft 192 kts 352°
2026-05-07 08:14 8.67015 124.48691 3352 ft 215 kts 353°
2026-05-07 08:14 8.67508 124.48654 3459 ft 223 kts 354°
2026-05-07 08:15 8.72079 124.48391 4841 ft 270 kts 355°
2026-05-07 08:16 8.78453 124.48078 7671 ft 284 kts 355°
2026-05-07 08:16 8.79773 124.47999 8241 ft 286 kts 350°
2026-05-07 08:16 8.83169 124.46157 9900 ft 285 kts 313°
2026-05-07 08:16 8.84063 124.45214 10438 ft 287 kts 311°
2026-05-07 08:17 8.88762 124.40173 11735 ft 342 kts 312°
2026-05-07 08:17 8.90435 124.38397 12100 ft 357 kts 310°
2026-05-07 08:18 8.91967 124.36402 12725 ft 363 kts 301°
2026-05-07 08:18 8.93180 124.34161 13359 ft 365 kts 292°
2026-05-07 08:18 8.94105 124.31787 13708 ft 367 kts 289°
2026-05-07 08:18 8.94969 124.29346 13781 ft 367 kts 288°
2026-05-07 08:19 8.95815 124.26926 13789 ft 367 kts 288°
2026-05-07 08:19 8.96675 124.24474 13793 ft 367 kts 288°
2026-05-07 08:19 8.97526 124.22068 13795 ft 367 kts 288°
2026-05-07 08:19 8.98394 124.19625 13796 ft 367 kts 289°
2026-05-07 08:20 8.99256 124.17203 13796 ft 367 kts 289°
2026-05-07 08:20 9.00117 124.14784 13796 ft 367 kts 289°
2026-05-07 08:20 9.00986 124.12343 13796 ft 367 kts 289°
2026-05-07 08:20 9.01796 124.09917 13796 ft 367 kts 285°
2026-05-07 08:21 9.02442 124.07434 13795 ft 366 kts 282°
2026-05-07 08:21 9.02912 124.04891 13794 ft 366 kts 278°
2026-05-07 08:21 9.03238 124.02338 13796 ft 366 kts 276°
2026-05-07 08:21 9.03538 123.99777 13796 ft 366 kts 276°
2026-05-07 08:22 9.03834 123.97230 13796 ft 366 kts 276°
2026-05-07 08:22 9.04133 123.94666 13796 ft 366 kts 276°
2026-05-07 08:22 9.04428 123.92141 13796 ft 366 kts 276°
2026-05-07 08:22 9.04732 123.89552 13796 ft 366 kts 276°
2026-05-07 08:23 9.05029 123.87026 13796 ft 366 kts 276°
2026-05-07 08:23 9.05332 123.84444 13796 ft 366 kts 276°
2026-05-07 08:23 9.05631 123.81888 13797 ft 366 kts 276°
2026-05-07 08:23 9.05925 123.79354 13796 ft 366 kts 276°
2026-05-07 08:24 9.06222 123.76804 13796 ft 366 kts 276°
2026-05-07 08:24 9.06523 123.74217 13796 ft 366 kts 276°
2026-05-07 08:24 9.06819 123.71686 13796 ft 366 kts 276°
2026-05-07 08:24 9.07123 123.69098 13796 ft 366 kts 276°
2026-05-07 08:25 9.07419 123.66568 13796 ft 366 kts 276°
2026-05-07 08:25 9.07722 123.64005 13795 ft 366 kts 277°
2026-05-07 08:25 9.08032 123.61438 13796 ft 367 kts 277°
2026-05-07 08:25 9.08337 123.58864 13795 ft 367 kts 276°
2026-05-07 08:26 9.08934 123.53771 13796 ft 367 kts 277°
2026-05-07 08:26 9.09234 123.51208 13796 ft 367 kts 277°
2026-05-07 08:26 9.09534 123.48649 13796 ft 367 kts 277°
2026-05-07 08:27 9.09835 123.46072 13796 ft 367 kts 276°
2026-05-07 08:27 9.10130 123.43514 13796 ft 367 kts 277°
2026-05-07 08:27 9.10598 123.40990 13784 ft 367 kts 288°
2026-05-07 08:27 9.11705 123.38675 13786 ft 369 kts 304°
2026-05-07 08:28 9.13444 123.36741 13786 ft 370 kts 320°
2026-05-07 08:28 9.15634 123.35400 13786 ft 373 kts 336°
2026-05-07 08:28 9.18135 123.34736 13790 ft 376 kts 352°
2026-05-07 08:28 9.20759 123.34811 13795 ft 380 kts
2026-05-07 08:29 9.23255 123.35664 13799 ft 383 kts 26°
2026-05-07 08:29 9.25433 123.37181 13808 ft 385 kts 37°
2026-05-07 08:29 9.27557 123.38831 13562 ft 383 kts 32°
2026-05-07 08:29 9.29784 123.40271 13315 ft 381 kts 30°
2026-05-07 08:30 9.32052 123.41656 13064 ft 379 kts 29°
2026-05-07 08:30 9.34326 123.43002 12813 ft 377 kts 28°
2026-05-07 08:30 9.36574 123.44312 12565 ft 376 kts 28°
2026-05-07 08:30 9.38829 123.45615 12316 ft 374 kts 27°
2026-05-07 08:31 9.41101 123.46920 12064 ft 373 kts 27°
2026-05-07 08:31 9.43321 123.48193 11817 ft 371 kts 27°
2026-05-07 08:31 9.45581 123.49488 11565 ft 369 kts 27°
2026-05-07 08:31 9.47787 123.50751 11317 ft 368 kts 27°
2026-05-07 08:32 9.50012 123.52026 11066 ft 366 kts 27°
2026-05-07 08:32 9.52236 123.53300 10815 ft 365 kts 27°
2026-05-07 08:32 9.54433 123.54559 10565 ft 363 kts 27°
2026-05-07 08:32 9.56620 123.55814 10316 ft 361 kts 27°
2026-05-07 08:33 9.58805 123.57025 10066 ft 359 kts 25°
2026-05-07 08:33 9.61047 123.58088 9861 ft 357 kts 21°
2026-05-07 08:33 9.63359 123.59000 9739 ft 355 kts 18°
2026-05-07 08:33 9.65629 123.59839 9520 ft 344 kts 18°
2026-05-07 08:34 9.67845 123.60652 9392 ft 329 kts 18°
2026-05-07 08:34 9.69946 123.61425 9262 ft 315 kts 18°
2026-05-07 08:34 9.71964 123.62169 9132 ft 302 kts 18°
2026-05-07 08:34 9.73893 123.62880 9002 ft 290 kts 18°
2026-05-07 08:35 9.75759 123.63560 8880 ft 288 kts 17°
2026-05-07 08:35 9.77645 123.64248 8745 ft 287 kts 18°
2026-05-07 08:35 9.79507 123.64928 8595 ft 286 kts 18°
2026-05-07 08:35 9.81374 123.65620 8430 ft 285 kts 18°
2026-05-07 08:36 9.83234 123.66317 8254 ft 284 kts 18°
2026-05-07 08:36 9.85100 123.67014 8012 ft 283 kts 18°
2026-05-07 08:36 9.86921 123.67690 7738 ft 282 kts 18°
2026-05-07 08:36 9.88756 123.68368 7446 ft 281 kts 18°
2026-05-07 08:37 9.90600 123.69049 7145 ft 279 kts 18°
2026-05-07 08:37 9.92414 123.69717 6843 ft 278 kts 18°
2026-05-07 08:37 9.94219 123.70383 6540 ft 276 kts 18°
2026-05-07 08:37 9.96009 123.71042 6236 ft 275 kts 18°
2026-05-07 08:38 9.97796 123.71700 5927 ft 273 kts 18°
2026-05-07 08:38 9.99582 123.72357 5618 ft 272 kts 18°
2026-05-07 08:38 10.01354 123.73010 5308 ft 270 kts 18°
2026-05-07 08:38 10.03097 123.73652 5002 ft 269 kts 19°
2026-05-07 08:39 10.04855 123.74300 4695 ft 267 kts 18°
2026-05-07 08:39 10.06584 123.74939 4392 ft 266 kts 19°
2026-05-07 08:39 10.08267 123.75703 4080 ft 265 kts 30°
2026-05-07 08:39 10.09722 123.76833 3779 ft 264 kts 41°
2026-05-07 08:40 10.11037 123.78123 3481 ft 263 kts 43°
2026-05-07 08:40 10.12331 123.79426 3184 ft 258 kts 43°
2026-05-07 08:40 10.13581 123.80677 3006 ft 249 kts 44°
2026-05-07 08:40 10.14771 123.81884 2994 ft 233 kts 43°
2026-05-07 08:41 10.15888 123.83018 2922 ft 222 kts 43°
2026-05-07 08:41 10.16952 123.84093 2826 ft 211 kts 43°
2026-05-07 08:41 10.17966 123.85113 2740 ft 200 kts 43°
2026-05-07 08:41 10.18935 123.86100 2662 ft 197 kts 43°
2026-05-07 08:42 10.19898 123.87081 2437 ft 198 kts 43°
2026-05-07 08:42 10.20536 123.87730 2321 ft 188 kts 43°
2026-05-07 08:42 10.21429 123.88640 2131 ft 172 kts 43°
2026-05-07 08:42 10.22444 123.89695 1989 ft 141 kts 42°
2026-05-07 08:43 10.23119 123.90387 1975 ft 135 kts 44°
2026-05-07 08:43 10.23769 123.91062 1938 ft 131 kts 44°
2026-05-07 08:43 10.24413 123.91730 1962 ft 135 kts 44°
2026-05-07 08:43 10.25081 123.92415 1554 ft 142 kts 43°
2026-05-07 08:44 10.25784 123.93125 1129 ft 142 kts 42°
2026-05-07 08:44 10.26487 123.93786 852 ft 132 kts 40°
2026-05-07 08:44 10.27177 123.94395 648 ft 131 kts 41°
2026-05-07 08:44 10.27835 123.95026 526 ft 131 kts 43°
2026-05-07 08:45 10.28480 123.95685 400 ft 131 kts 44°
2026-05-07 08:45 10.29133 123.96326 211 ft 130 kts 44°
2026-05-07 08:45 10.29781 123.96970 54 ft 129 kts 47°
2026-05-07 08:45 10.30399 123.97585 36 ft 106 kts 44°
2026-05-07 08:46 10.30755 123.97943 36 ft 37 kts 45°
2026-05-07 08:46 10.30921 123.98109 36 ft 31 kts 46°
2026-05-07 08:46 10.31055 123.98243 36 ft 27 kts 42°
2026-05-07 08:46 10.31203 123.98318 36 ft 22 kts 17°
2026-05-07 08:47 10.31314 123.98352 36 ft 12 kts 11°
2026-05-07 08:47 10.31401 123.98313 36 ft 16 kts 316°
2026-05-07 08:47 10.31488 123.98226 36 ft 19 kts 314°
2026-05-07 08:47 10.31542 123.98171 36 ft 9 kts 315°
2026-05-07 08:48 10.31563 123.98110 36 ft 10 kts 245°
2026-05-07 08:48 10.31513 123.98052 36 ft 11 kts 225°
2026-05-07 08:48 10.31471 123.98010 36 ft 5 kts 224°
2026-05-07 08:48 10.31460 123.97984 36 ft 2 kts 288°
2026-05-07 08:49 10.31472 123.97966 36 ft 3 kts 309°
2026-05-07 08:49 10.31490 123.97947 36 ft 2 kts 315°
2026-05-07 08:49 10.31504 123.97932 36 ft 3 kts 315°